Location: Oberwangen
(47.4286°N, 8.9679°E)
Time: 15:34:48
(UTC+00:00)

Cosmos 1825 - Pass Details

Date: 20 June 2021
Orbit: 501 x 506 km, 82.5° (Epoch: 03 August)

Event Time Altitude Azimuth Distance (km) Brightness Sun altitude
Exits shadow 23:54:29 35° 130° (SE) 827 2.9 -18.8°
Maximum altitude 23:55:23 42° 94° (E) 732 2.9 -18.8°
Drops below altitude 10° 23:58:58 10° 22° (NNE) 1,729 6.0 -18.7°
Sets 00:01:10 0° 16° (NNE) 2,618 7.4 -18.7°
